Time,TemperatureF,DewpointF,PressureIn,WindDirection,WindDirectionDegrees,WindSpeedMPH,WindSpeedGustMPH,Humidity,HourlyPrecipIn,Conditions,Clouds,dailyrainin,SoftwareType,DateUTC
2013-03-04 00:01:00,36.0,29.0,29.80,SSE,163,1.0,-999.0,74,-99.99,,,-99.99,,2013-03-04 06:01:00,
2013-03-04 00:11:00,36.0,29.0,29.80,SSE,163,1.0,-999.0,74,-99.99,,,-99.99,,2013-03-04 06:11:00,
2013-03-04 00:21:00,35.0,28.0,29.80,SSE,157,0.0,-999.0,75,-99.99,,,-99.99,,2013-03-04 06:21:00,
2013-03-04 00:32:00,34.0,27.0,29.80,SSE,153,0.0,-999.0,76,-99.99,,,-99.99,,2013-03-04 06:32:00,
2013-03-04 00:42:00,34.0,27.0,29.80,SSE,153,0.0,-999.0,76,-99.99,,,-99.99,,2013-03-04 06:42:00,
2013-03-04 00:52:00,34.0,28.0,29.78,SE,135,1.0,-999.0,78,-99.99,,,-99.99,,2013-03-04 06:52:00,
2013-03-04 01:01:00,34.0,28.0,29.77,SSE,155,0.0,-999.0,77,-99.99,,,-99.99,,2013-03-04 07:01:00,
2013-03-04 01:11:00,34.0,28.0,29.77,SSE,155,0.0,-999.0,77,-99.99,,,-99.99,,2013-03-04 07:11:00,
2013-03-04 01:21:00,34.0,28.0,29.77,South,170,0.0,-999.0,77,-99.99,,,-99.99,,2013-03-04 07:21:00,
2013-03-04 01:32:00,34.0,27.0,29.76,SSE,164,3.0,-999.0,76,-99.99,,,-99.99,,2013-03-04 07:32:00,
2013-03-04 01:41:00,34.0,27.0,29.76,SSE,164,3.0,-999.0,76,-99.99,,,-99.99,,2013-03-04 07:41:00,
2013-03-04 01:52:00,34.0,28.0,29.75,SSE,167,1.0,-999.0,77,-99.99,,,-99.99,,2013-03-04 07:52:00,
2013-03-04 02:02:00,34.0,28.0,29.75,SSE,158,1.0,-999.0,77,-99.99,,,-99.99,,2013-03-04 08:02:00,
2013-03-04 02:11:00,34.0,28.0,29.75,SSE,158,1.0,-999.0,77,-99.99,,,-99.99,,2013-03-04 08:11:00,
2013-03-04 02:21:00,34.0,28.0,29.75,SSE,167,0.0,-999.0,77,-99.99,,,-99.99,,2013-03-04 08:21:00,
2013-03-04 02:32:00,34.0,28.0,29.75,SSE,166,0.0,-999.0,78,-99.99,,,-99.99,,2013-03-04 08:32:00,
2013-03-04 02:42:00,34.0,28.0,29.75,SSE,166,0.0,-999.0,78,-99.99,,,-99.99,,2013-03-04 08:42:00,
2013-03-04 02:52:00,34.0,28.0,29.75,South,174,1.0,-999.0,77,-99.99,,,-99.99,,2013-03-04 08:52:00,
2013-03-04 03:01:00,34.0,28.0,29.74,SSE,148,0.0,-999.0,78,-99.99,,,-99.99,,2013-03-04 09:01:00,
2013-03-04 03:11:00,34.0,28.0,29.74,SSE,148,0.0,-999.0,78,-99.99,,,-99.99,,2013-03-04 09:11:00,
2013-03-04 03:21:00,33.0,27.0,29.73,SSE,161,0.0,-999.0,78,-99.99,,,-99.99,,2013-03-04 09:21:00,
2013-03-04 03:32:00,33.0,27.0,29.72,South,182,1.0,-999.0,79,-99.99,,,-99.99,,2013-03-04 09:32:00,
2013-03-04 03:42:00,33.0,27.0,29.72,South,182,1.0,-999.0,79,-99.99,,,-99.99,,2013-03-04 09:42:00,
2013-03-04 03:52:00,34.0,28.0,29.71,SE,129,5.0,-999.0,78,-99.99,,,-99.99,,2013-03-04 09:52:00,
2013-03-04 04:01:00,34.0,28.0,29.72,South,184,0.0,-999.0,78,-99.99,,,-99.99,,2013-03-04 10:01:00,
2013-03-04 04:11:00,34.0,28.0,29.72,South,184,0.0,-999.0,78,-99.99,,,-99.99,,2013-03-04 10:11:00,
2013-03-04 04:22:00,34.0,28.0,29.72,NE,53,0.0,-999.0,79,-99.99,,,-99.99,,2013-03-04 10:22:00,
2013-03-04 04:31:00,34.0,28.0,29.73,SE,140,0.0,-999.0,79,-99.99,,,-99.99,,2013-03-04 10:31:00,
2013-03-04 04:42:00,34.0,28.0,29.73,SE,140,0.0,-999.0,79,-99.99,,,-99.99,,2013-03-04 10:42:00,
2013-03-04 04:52:00,34.0,28.0,29.73,SE,144,0.0,-999.0,79,-99.99,,,-99.99,,2013-03-04 10:52:00,
2013-03-04 05:01:00,34.0,28.0,29.73,SW,221,0.0,-999.0,80,-99.99,,,-99.99,,2013-03-04 11:01:00,
2013-03-04 05:11:00,34.0,28.0,29.73,SW,221,0.0,-999.0,80,-99.99,,,-99.99,,2013-03-04 11:11:00,
2013-03-04 05:21:00,34.0,28.0,29.73,SSE,168,0.0,-999.0,80,-99.99,,,-99.99,,2013-03-04 11:21:00,
2013-03-04 05:32:00,34.0,28.0,29.73,SSE,150,1.0,-999.0,79,-99.99,,,-99.99,,2013-03-04 11:32:00,
2013-03-04 05:42:00,34.0,28.0,29.73,SSE,150,1.0,-999.0,79,-99.99,,,-99.99,,2013-03-04 11:42:00,
2013-03-04 05:52:00,34.0,28.0,29.72,SSE,159,3.0,-999.0,79,-99.99,,,-99.99,,2013-03-04 11:52:00,
2013-03-04 06:01:00,35.0,29.0,29.72,SSE,162,2.0,-999.0,78,-99.99,,,-99.99,,2013-03-04 12:01:00,
2013-03-04 06:11:00,35.0,29.0,29.72,SSE,162,2.0,-999.0,78,-99.99,,,-99.99,,2013-03-04 12:11:00,
2013-03-04 06:22:00,35.0,29.0,29.72,South,174,2.0,-999.0,79,-99.99,,,-99.99,,2013-03-04 12:22:00,
2013-03-04 06:32:00,35.0,29.0,29.72,South,172,2.0,-999.0,79,-99.99,,,-99.99,,2013-03-04 12:32:00,
2013-03-04 06:42:00,35.0,29.0,29.72,South,172,2.0,-999.0,79,-99.99,,,-99.99,,2013-03-04 12:42:00,
2013-03-04 06:53:00,35.0,29.0,29.72,SSE,162,1.0,-999.0,79,-99.99,,,-99.99,,2013-03-04 12:53:00,
2013-03-04 07:02:00,34.0,28.0,29.72,SSE,159,1.0,-999.0,80,-99.99,,,-99.99,,2013-03-04 13:02:00,
2013-03-04 07:11:00,34.0,28.0,29.72,SSE,159,1.0,-999.0,80,-99.99,,,-99.99,,2013-03-04 13:11:00,
2013-03-04 07:21:00,34.0,28.0,29.71,SSE,165,2.0,-999.0,80,-99.99,,,-99.99,,2013-03-04 13:21:00,
2013-03-04 07:32:00,34.0,29.0,29.72,SSE,163,0.0,-999.0,81,-99.99,,,-99.99,,2013-03-04 13:32:00,
2013-03-04 07:41:00,34.0,29.0,29.72,SSE,163,0.0,-999.0,81,-99.99,,,-99.99,,2013-03-04 13:41:00,
2013-03-04 07:52:00,34.0,29.0,29.72,SSE,150,1.0,-999.0,82,-99.99,,,-99.99,,2013-03-04 13:52:00,
2013-03-04 08:01:00,34.0,29.0,29.73,SSE,150,0.0,-999.0,82,-99.99,,,-99.99,,2013-03-04 14:01:00,
2013-03-04 08:11:00,34.0,29.0,29.73,SSE,150,0.0,-999.0,82,-99.99,,,-99.99,,2013-03-04 14:11:00,
2013-03-04 08:22:00,36.0,30.0,29.73,SSE,164,0.0,-999.0,80,-99.99,,,-99.99,,2013-03-04 14:22:00,
2013-03-04 08:32:00,36.0,30.0,29.72,South,178,1.0,-999.0,79,-99.99,,,-99.99,,2013-03-04 14:32:00,
2013-03-04 08:42:00,36.0,30.0,29.72,South,178,1.0,-999.0,79,-99.99,,,-99.99,,2013-03-04 14:42:00,
2013-03-04 08:52:00,37.0,31.0,29.72,South,178,0.0,-999.0,79,-99.99,,,-99.99,,2013-03-04 14:52:00,
2013-03-04 09:01:00,37.0,31.0,29.72,SSE,166,1.0,-999.0,78,-99.99,,,-99.99,,2013-03-04 15:01:00,
2013-03-04 09:11:00,37.0,31.0,29.72,SSE,166,1.0,-999.0,78,-99.99,,,-99.99,,2013-03-04 15:11:00,
2013-03-04 09:21:00,38.0,31.0,29.72,SSE,167,1.0,-999.0,76,-99.99,,,-99.99,,2013-03-04 15:21:00,
2013-03-04 09:32:00,37.0,30.0,29.72,SSE,160,4.0,-999.0,75,-99.99,,,-99.99,,2013-03-04 15:32:00,
2013-03-04 09:42:00,37.0,30.0,29.72,SSE,160,4.0,-999.0,75,-99.99,,,-99.99,,2013-03-04 15:42:00,
2013-03-04 09:51:00,38.0,31.0,29.73,SSE,159,1.0,-999.0,75,-99.99,,,-99.99,,2013-03-04 15:51:00,
2013-03-04 10:02:00,39.0,31.0,29.74,SSE,158,0.0,-999.0,73,-99.99,,,-99.99,,2013-03-04 16:02:00,
2013-03-04 10:11:00,39.0,31.0,29.74,SSE,158,0.0,-999.0,73,-99.99,,,-99.99,,2013-03-04 16:11:00,
2013-03-04 10:21:00,40.0,31.0,29.74,South,177,2.0,-999.0,71,-99.99,,,-99.99,,2013-03-04 16:21:00,
2013-03-04 10:31:00,41.0,33.0,29.73,SSE,163,4.0,-999.0,72,-99.99,,,-99.99,,2013-03-04 16:31:00,
2013-03-04 10:42:00,41.0,33.0,29.73,SSE,163,4.0,-999.0,72,-99.99,,,-99.99,,2013-03-04 16:42:00,
2013-03-04 10:52:00,41.0,32.0,29.74,SSE,158,3.0,-999.0,69,-99.99,,,-99.99,,2013-03-04 16:52:00,
2013-03-04 11:02:00,41.0,32.0,29.74,SSE,158,3.0,-999.0,69,-99.99,,,-99.99,,2013-03-04 17:02:00,
2013-03-04 11:11:00,41.0,32.0,29.74,SSE,158,3.0,-999.0,69,-99.99,,,-99.99,,2013-03-04 17:11:00,
2013-03-04 11:22:00,41.0,32.0,29.73,SSE,155,2.0,-999.0,71,-99.99,,,-99.99,,2013-03-04 17:22:00,
2013-03-04 11:32:00,42.0,33.0,29.73,SSE,155,0.0,-999.0,69,-99.99,,,-99.99,,2013-03-04 17:32:00,
2013-03-04 11:42:00,42.0,33.0,29.73,SSE,155,0.0,-999.0,69,-99.99,,,-99.99,,2013-03-04 17:42:00,
2013-03-04 11:52:00,43.0,32.0,29.73,SSE,155,0.0,-999.0,66,-99.99,,,-99.99,,2013-03-04 17:52:00,
2013-03-04 12:01:00,44.0,34.0,29.73,SSE,155,0.0,-999.0,67,-99.99,,,-99.99,,2013-03-04 18:01:00,
2013-03-04 12:11:00,44.0,34.0,29.73,SSE,155,0.0,-999.0,67,-99.99,,,-99.99,,2013-03-04 18:11:00,
2013-03-04 12:21:00,44.0,33.0,29.73,SSE,155,0.0,-999.0,66,-99.99,,,-99.99,,2013-03-04 18:21:00,
2013-03-04 12:32:00,44.0,33.0,29.72,SSE,155,0.0,-999.0,65,-99.99,,,-99.99,,2013-03-04 18:32:00,
2013-03-04 12:42:00,44.0,33.0,29.72,SSE,155,0.0,-999.0,65,-99.99,,,-99.99,,2013-03-04 18:42:00,
2013-03-04 12:52:00,45.0,33.0,29.73,SSE,155,0.0,-999.0,63,-99.99,,,-99.99,,2013-03-04 18:52:00,
2013-03-04 13:01:00,45.0,33.0,29.74,SSE,155,0.0,-999.0,63,-99.99,,,-99.99,,2013-03-04 19:01:00,
2013-03-04 13:11:00,45.0,33.0,29.74,SSE,155,0.0,-999.0,63,-99.99,,,-99.99,,2013-03-04 19:11:00,
2013-03-04 13:21:00,44.0,32.0,29.73,SSE,155,0.0,-999.0,63,-99.99,,,-99.99,,2013-03-04 19:21:00,
2013-03-04 13:32:00,45.0,34.0,29.73,SSE,155,0.0,-999.0,64,-99.99,,,-99.99,,2013-03-04 19:32:00,
2013-03-04 13:42:00,45.0,34.0,29.73,SSE,155,0.0,-999.0,64,-99.99,,,-99.99,,2013-03-04 19:42:00,
2013-03-04 13:51:00,44.0,32.0,29.72,SSE,155,0.0,-999.0,63,-99.99,,,-99.99,,2013-03-04 19:51:00,
2013-03-04 14:01:00,45.0,34.0,29.72,SSE,155,0.0,-999.0,64,-99.99,,,-99.99,,2013-03-04 20:01:00,
2013-03-04 14:11:00,45.0,34.0,29.72,SSE,155,0.0,-999.0,64,-99.99,,,-99.99,,2013-03-04 20:11:00,
2013-03-04 14:22:00,45.0,34.0,29.73,SSE,155,0.0,-999.0,65,-99.99,,,-99.99,,2013-03-04 20:22:00,
2013-03-04 14:32:00,45.0,34.0,29.72,SSE,155,0.0,-999.0,65,-99.99,,,-99.99,,2013-03-04 20:32:00,
2013-03-04 14:42:00,45.0,34.0,29.72,SSE,155,0.0,-999.0,65,-99.99,,,-99.99,,2013-03-04 20:42:00,
2013-03-04 14:52:00,45.0,34.0,29.73,SSE,155,0.0,-999.0,66,-99.99,,,-99.99,,2013-03-04 20:52:00,
2013-03-04 15:02:00,45.0,35.0,29.73,SSE,155,0.0,-999.0,67,-99.99,,,-99.99,,2013-03-04 21:02:00,
2013-03-04 15:11:00,45.0,35.0,29.73,SSE,155,0.0,-999.0,67,-99.99,,,-99.99,,2013-03-04 21:11:00,
2013-03-04 15:21:00,45.0,35.0,29.73,SSE,155,0.0,-999.0,67,-99.99,,,-99.99,,2013-03-04 21:21:00,
2013-03-04 15:32:00,44.0,34.0,29.74,NNE,22,3.0,-999.0,68,-99.99,,,-99.99,,2013-03-04 21:32:00,
2013-03-04 15:42:00,44.0,34.0,29.74,NNE,22,3.0,-999.0,68,-99.99,,,-99.99,,2013-03-04 21:42:00,
2013-03-04 15:52:00,45.0,35.0,29.74,NNE,22,0.0,-999.0,69,-99.99,,,-99.99,,2013-03-04 21:52:00,
2013-03-04 16:02:00,46.0,35.0,29.75,NNE,22,1.0,-999.0,66,-99.99,,,-99.99,,2013-03-04 22:02:00,
2013-03-04 16:12:00,46.0,35.0,29.75,NNE,22,1.0,-999.0,66,-99.99,,,-99.99,,2013-03-04 22:12:00,
2013-03-04 16:22:00,46.0,35.0,29.75,NNE,22,1.0,-999.0,66,-99.99,,,-99.99,,2013-03-04 22:22:00,
2013-03-04 16:32:00,44.0,33.0,29.77,NNE,21,1.0,-999.0,66,-99.99,,,-99.99,,2013-03-04 22:32:00,
2013-03-04 16:42:00,44.0,33.0,29.77,NNE,21,1.0,-999.0,66,-99.99,,,-99.99,,2013-03-04 22:42:00,
2013-03-04 16:52:00,43.0,34.0,29.77,NNE,21,0.0,-999.0,69,-99.99,,,-99.99,,2013-03-04 22:52:00,
2013-03-04 17:02:00,43.0,34.0,29.77,NNE,21,0.0,-999.0,71,-99.99,,,-99.99,,2013-03-04 23:02:00,
2013-03-04 17:11:00,43.0,34.0,29.77,NNE,21,0.0,-999.0,71,-99.99,,,-99.99,,2013-03-04 23:11:00,
2013-03-04 17:21:00,41.0,33.0,29.78,NNE,21,0.0,-999.0,73,-99.99,,,-99.99,,2013-03-04 23:21:00,
2013-03-04 17:32:00,41.0,34.0,29.79,NNE,21,0.0,-999.0,75,-99.99,,,-99.99,,2013-03-04 23:32:00,
2013-03-04 17:42:00,41.0,34.0,29.79,NNE,21,0.0,-999.0,75,-99.99,,,-99.99,,2013-03-04 23:42:00,
2013-03-04 17:52:00,40.0,33.0,29.80,NNE,21,0.0,-999.0,76,-99.99,,,-99.99,,2013-03-04 23:52:00,
2013-03-04 18:02:00,40.0,33.0,29.82,NNE,21,0.0,-999.0,76,-99.99,,,-99.99,,2013-03-05 00:02:00,
2013-03-04 18:11:00,40.0,33.0,29.82,NNE,21,0.0,-999.0,76,-99.99,,,-99.99,,2013-03-05 00:11:00,
2013-03-04 18:21:00,40.0,33.0,29.83,NNE,21,0.0,-999.0,76,-99.99,,,-99.99,,2013-03-05 00:21:00,
2013-03-04 18:32:00,39.0,32.0,29.85,NNE,21,0.0,-999.0,77,-99.99,,,-99.99,,2013-03-05 00:32:00,
2013-03-04 18:42:00,39.0,32.0,29.85,NNE,21,0.0,-999.0,77,-99.99,,,-99.99,,2013-03-05 00:42:00,
2013-03-04 18:51:00,39.0,32.0,29.87,NNE,21,0.0,-999.0,77,-99.99,,,-99.99,,2013-03-05 00:51:00,
2013-03-04 19:01:00,38.0,32.0,29.89,NNE,21,0.0,-999.0,78,-99.99,,,-99.99,,2013-03-05 01:01:00,
2013-03-04 19:12:00,38.0,32.0,29.89,NNE,21,0.0,-999.0,78,-99.99,,,-99.99,,2013-03-05 01:12:00,
2013-03-04 19:21:00,38.0,32.0,29.89,NNE,21,0.0,-999.0,80,-99.99,,,-99.99,,2013-03-05 01:21:00,
2013-03-04 19:32:00,38.0,33.0,29.90,NNE,21,0.0,-999.0,81,-99.99,,,-99.99,,2013-03-05 01:32:00,
2013-03-04 19:41:00,38.0,33.0,29.90,NNE,21,0.0,-999.0,81,-99.99,,,-99.99,,2013-03-05 01:41:00,
2013-03-04 19:51:00,38.0,33.0,29.91,NNE,21,0.0,-999.0,81,-99.99,,,-99.99,,2013-03-05 01:51:00,
2013-03-04 20:01:00,38.0,33.0,29.92,NNE,21,0.0,-999.0,82,-99.99,,,-99.99,,2013-03-05 02:01:00,
2013-03-04 20:11:00,38.0,33.0,29.92,NNE,21,0.0,-999.0,82,-99.99,,,-99.99,,2013-03-05 02:11:00,
2013-03-04 20:21:00,38.0,33.0,29.93,NNE,21,0.0,-999.0,83,-99.99,,,-99.99,,2013-03-05 02:21:00,
2013-03-04 20:32:00,38.0,33.0,29.93,NNE,21,0.0,-999.0,83,-99.99,,,-99.99,,2013-03-05 02:32:00,
2013-03-04 20:42:00,38.0,33.0,29.93,NNE,21,0.0,-999.0,83,-99.99,,,-99.99,,2013-03-05 02:42:00,
2013-03-04 20:52:00,38.0,34.0,29.94,NNE,21,1.0,-999.0,85,-99.99,,,-99.99,,2013-03-05 02:52:00,
2013-03-04 21:02:00,37.0,33.0,29.95,North,360,6.0,-999.0,86,-99.99,,,-99.99,,2013-03-05 03:02:00,
2013-03-04 21:12:00,37.0,33.0,29.95,North,360,6.0,-999.0,86,-99.99,,,-99.99,,2013-03-05 03:12:00,
2013-03-04 21:22:00,37.0,34.0,29.96,North,355,6.0,-999.0,87,-99.99,,,-99.99,,2013-03-05 03:22:00,
2013-03-04 21:32:00,37.0,34.0,29.96,North,355,4.0,-999.0,88,-99.99,,,-99.99,,2013-03-05 03:32:00,
2013-03-04 21:42:00,37.0,34.0,29.96,North,355,4.0,-999.0,88,-99.99,,,-99.99,,2013-03-05 03:42:00,
2013-03-04 21:51:00,36.0,33.0,29.97,North,355,4.0,-999.0,89,-99.99,,,-99.99,,2013-03-05 03:51:00,
2013-03-04 22:01:00,36.0,33.0,29.98,North,355,1.0,-999.0,89,-99.99,,,-99.99,,2013-03-05 04:01:00,
2013-03-04 22:11:00,36.0,33.0,29.98,North,355,1.0,-999.0,89,-99.99,,,-99.99,,2013-03-05 04:11:00,
2013-03-04 22:21:00,36.0,33.0,29.98,North,355,1.0,-999.0,89,-99.99,,,-99.99,,2013-03-05 04:21:00,
2013-03-04 22:32:00,36.0,33.0,30.00,North,355,2.0,-999.0,90,-99.99,,,-99.99,,2013-03-05 04:32:00,
2013-03-04 22:42:00,36.0,33.0,30.00,North,355,2.0,-999.0,90,-99.99,,,-99.99,,2013-03-05 04:42:00,
2013-03-04 22:51:00,36.0,34.0,30.00,North,355,2.0,-999.0,91,-99.99,,,-99.99,,2013-03-05 04:51:00,
2013-03-04 23:02:00,36.0,34.0,30.00,North,355,3.0,-999.0,91,-99.99,,,-99.99,,2013-03-05 05:02:00,
2013-03-04 23:11:00,36.0,34.0,30.00,North,355,3.0,-999.0,91,-99.99,,,-99.99,,2013-03-05 05:11:00,
2013-03-04 23:22:00,35.0,33.0,30.00,North,355,3.0,-999.0,91,-99.99,,,-99.99,,2013-03-05 05:22:00,
2013-03-04 23:32:00,35.0,33.0,30.00,North,355,1.0,-999.0,92,-99.99,,,-99.99,,2013-03-05 05:32:00,
2013-03-04 23:42:00,35.0,33.0,30.00,North,355,1.0,-999.0,92,-99.99,,,-99.99,,2013-03-05 05:42:00,
2013-03-04 23:52:00,35.0,33.0,30.00,North,355,0.0,-999.0,92,-99.99,,,-99.99,,2013-03-05 05:52:00,